Flag for Austria Weather past 2 weeks in Leoben, Styria, Austria

Now
37 °F

Partly sunny.


Feels Like: 37 °F
Forecast: 24 / 42 °F
Wind: 2 mph from North

Location: Zeltweg

Current Time: Dec 21, 2014 at 9:40:45 AM

Latest Report: Dec 21, 2014 at 8:50 AM


Visibility: 12 mi

Pressure: 30.27 "Hg

Humidity: 65%

Dew point: 27 °F

Location of LeobenLocation

Historic Weather in Leoben — Graph

°F

Leoben temperature yesterday

Maximum temperature yesterday: 54 °F (at 12:50 PM)
Minimum temperature yesterday: 28 °F (at 4:50 AM)
Average temperature yesterday: 38 °F

Past Weeks' High & Low Weather Summary

 TemperatureHumidityPressure
High55 °F (Dec 19, 2:50 PM)100% (Dec 6, 2:50 PM)30.30 "Hg (Dec 6, 2:50 PM)
Low16 °F (Dec 10, 7:20 AM)38% (Dec 20, 12:50 PM)29.86 "Hg (Dec 16, 2:50 PM)
Average33 °F88%30.05 "Hg
* Reported Dec 6 7:50 AM — Dec 21 7:50 AM, Leoben, Weather by CustomWeather, © 2014

Note: Actual official high and low records may vary slightly from our data, if they occured in-between our weather recording intervals... More about our weather records

Advertising

Leoben weather history for previous 24 hours

 ConditionsComfort  
Time TempWeatherWind HumidityBarometerVisibility
7:50 AM
Dec 21
37 °FPartly sunny.6 mph65%30.24 "Hg9 mi
6:50 AM36 °FSprinkles. Passing clouds.13 mph81%30.24 "Hg9 mi
5:50 AM36 °FPassing clouds.18 mph81%30.24 "Hg6 mi
4:50 AM34 °FPassing clouds.13 mph100%30.21 "Hg6 mi
9:50 PM
Dec 20
39 °FPassing clouds.5 mph65%30.12 "Hg9 mi
8:50 PM36 °FPassing clouds.2 mph75%30.09 "Hg9 mi
7:50 PM32 °FPassing clouds.2 mph87%30.07 "Hg9 mi
6:50 PM32 °FPassing clouds.3 mph87%30.07 "Hg12 mi
5:50 PM34 °FPassing clouds.3 mph87%30.07 "Hg12 mi
4:50 PM36 °FPassing clouds.1 mph75%30.07 "Hg19 mi
3:50 PM41 °FPartly sunny.1 mph66%30.07 "Hg31 mi
2:50 PM45 °FScattered clouds.2 mph57%30.07 "Hg25 mi
1:50 PM46 °FScattered clouds.2 mph50%30.07 "Hg31 mi
12:50 PM54 °FPassing clouds.3 mph38%30.12 "Hg31 mi
11:50 AM52 °FPassing clouds.3 mph44%30.15 "Hg31 mi
10:50 AM45 °FPassing clouds.5 mph76%30.18 "Hg31 mi
9:50 AM37 °FPassing clouds.3 mph87%30.18 "Hg31 mi
Weather by CustomWeather, © 2014

See weather overviewHow to use our weather pages